Weather in Maracaibo

Venezuela     10°38′33″N   71°38′27″W
temp.,
°C
wind,
m/s
gust,
m/s
humid.,
%
clouds,
%
prec.,
mm/h
press.,
hPa
HPBL,
m
14 may, fri
fri1423:00+27nne5108130 0.0 1010533
02:00+26ne378183 0.0 1010425
05:00+25nne248093 0.0 1010220
08:00+27ene2373100 0.0 1011359
11:00+31ne2356100 0.0 10121307
14:00+32ne4354100 0.0 10091171
17:00+30nne4558100 0.0 1008716
20:00+27nne4978100 0.0 1009543
15 may, sat
sat1523:00+26nne5108198 0.0 1011649
02:00+26nne488494 0.0 1010571
05:00+26ne368492 0.0 1010427
08:00+27ne3474100 0.0 1011448
11:00+31ene2257100 0.0 10111166
14:00+33ene4351100 0.0 10091518
17:00+30nne446297 0.0 1008616
20:00+28nne497996 0.0 1009559
16 may, sun
sun1623:00+27nne497533 0.0 1011664
02:00+26nne488298 0.0 1010578
05:00+26nne3782100 0.0 1009507
08:00+27ne357293 0.0 1012516
11:00+32ne2255100 0.0 10121098
14:00+34e334799 0.0 10091841
17:00+32ne445699 0.0 1007941
20:00+27ne498095 0.0 1010475
17 may, mon
mon1723:00+27nne5982100 0.1 1012587
02:00+26nne5885100 0.1 1010622
05:00+26nne4683100 0.1 1010653
08:00+27nne3477100 0.1 1011533
11:00+32ene2255100 0.0 10111181
14:00+34ene344728 0.1 10081767
17:00+31ne555823 0.0 1008817
20:00+28nne3976100 0.4 1010585
18 may, tue
tue1823:00+27nne51082100 0.2 1012659
02:00+27nne4885100 0.2 1010551
05:00+26ne478480 0.0 1009529
08:00+27ne237399 0.1 1011455
11:00+32ene235526 0.2 10121322
14:00+34ese344841 0.4 10091654
17:00+32ene445597 0.1 10081168
20:00+28nne2377100 0.9 1010234